Weather Service Report


890 
ASUS46 KSEW 241510
RWRWA 

WASHINGTON REGIONAL WEATHER ROUNDUP
NATIONAL WEATHER SERVICE SEATTLE WA
800 AM PDT FRI MAR 24 2017

NOTE:"FAIR" INDICATES FEW OR NO CLOUDS BELOW 12,000 FEET WITH NO 
SIGNIFICANT WEATHER AND/OR OBSTRUCTIONS TO VISIBILITY.

WAZ507-509-555>559-241600-
SEATTLE, TACOMA, EVERETT, AND VICINITY
  
CITY           SKY/WX    TMP DP  RH WIND       PRES   REMARKS
EVERETT        LGT RAIN  45  43  93 SE7       29.77S                  
BOEING FIELD   LGT RAIN  47  47 100 W6        29.79R                  
RENTON         LGT RAIN  47  45  93 SE6       29.78S                  
SEATAC AIRPORT CLOUDY    46  44  93 SW6       29.78S                  
JBLM-MCCHORD   LGT RAIN  46  46 100 SW8       29.79R                  
PUYALLUP         N/A     48  43  81 VRB7      29.78R                  
BREMERTON      CLOUDY    43  43 100 CALM      29.79S                  
JBLM-FT LEWIS  CLOUDY    45  45 100 E6        29.78S                  
TACOMA NARROWS LGT RAIN  44  44 100 E3        29.79S FOG              
$$
 
WAZ001-503-506-510-514-515-241600-
NORTH INTERIOR
  
CITY           SKY/WX    TMP DP  RH WIND       PRES   REMARKS
BELLINGHAM     MOCLDY    45  43  93 W5        29.74S                  
FRIDAY HARBOR  CLOUDY    47  42  83 SE9       29.75S                  
EASTSOUND      PTCLDY    48  41  76 S12       29.72S                  
PORT ANGELES   CLEAR     37  37 100 N3        29.72F                  
EDIZ HOOK      FAIR      43  40  88 SE5       29.73S                  
PORT TOWNSEND  CLOUDY    45  45 100 CALM      29.75R                  
NAS WHIDBEY    MOCLDY    49  41  74 SE17G26   29.77F                  
ARLINGTON      CLOUDY    45  39  81 CALM      29.80S                  
BURLINGTON     CLOUDY    46  43  87 CALM      29.76S                  
$$
 
WAZ020-022-039-040-504-511-512-241600-
SOUTHWEST INTERIOR
  
CITY           SKY/WX    TMP DP  RH WIND       PRES   REMARKS
SHELTON        CLOUDY    43  41  93 SW3       29.76R                  
OLYMPIA        LGT RAIN  46  46 100 CALM      29.78S                  
CHEHALIS       FAIR      48  48 100 S5        29.79R                  
KELSO          CLOUDY    49  44  83 SE7       29.82R                  
VANCOUVER      LGT RAIN  48  47  96 SE9       29.84R                  
SCAPPOOSE, OR  CLOUDY    48  46  93 S9        29.82R                  
PORTLAND, OR   LGT RAIN  47  47 100 SE14      29.85R                  
$$
 
WAZ021-516-517-241600-
WASHINGTON COAST
  
CITY           SKY/WX    TMP DP  RH WIND       PRES   REMARKS
FORKS          LGT RAIN  46  45  96 SE7       29.71R                  
HOQUIAM        CLOUDY    47  46  97 E9        29.76R FOG              
ASTORIA, OR    CLOUDY    48  43  82 S6        29.77S                  
$$
 
WAZ019-023-024-040-567>569-241600-
CASCADE MOUNTAINS AND COLUMBIA GORGE
  
CITY           SKY/WX    TMP DP  RH WIND       PRES   REMARKS
STAMPEDE PASS  NOT AVBL                                               
TROUTDALE, OR  LGT RAIN  47  45  93 E7        29.86S                  
THE DALLES, OR CLOUDY    45  44  97 NW8       29.85S                  
$$

WAZ026-027-041>044-520-521-241600-
EAST SLOPES
  
CITY           SKY/WX    TMP DP  RH WIND       PRES   REMARKS
OMAK           LGT RAIN  38  35  89 CALM      29.89F                  
WENATCHEE      LGT RAIN  38  37  97 W6        29.87F FOG              
ELLENSBURG     LGT RAIN  41  36  82 E7        29.84F                  
YAKIMA         LGT RAIN  44  42  93 CALM      29.86F FOG              
SUNNYSIDE ARPT RAIN      42  41  95 N3        29.87F                  
$$

WAZ028-034-035-241600-
COLUMBIA BASIN
  
CITY           SKY/WX    TMP DP  RH WIND       PRES   REMARKS
EPHRATA        LGT RAIN  41  35  79 NW5       29.86S                  
MOSES LAKE     LGT RAIN  41  38  89 SE3       29.87S FOG              
PASCO          LGT RAIN  44  41  89 E5        29.90S                  
HERMISTON, OR  RAIN      45  45 100 NE5       29.86F FOG              
$$

WAZ036>038-241600-
NORTHEAST WASHINGTON
  
CITY           SKY/WX    TMP DP  RH WIND       PRES   REMARKS
SPOKANE GEIGER LGT RAIN  37  34  89 E7        29.89F                  
SPOKANE FELTS  CLOUDY    40  36  86 E6        29.91F                  
FAIRCHILD AFB  LGT RAIN  36  36 100 E7        29.87F                  
COEURDALENE,ID LGT RAIN  35  32  88 N10       29.92F WCI  27          
DEER PARK      LGT RAIN  36  33  89 N6        29.91F                  
$$

WAZ029>033-241600-
SOUTHEAST WASHINGTON
  
CITY           SKY/WX    TMP DP  RH WIND       PRES   REMARKS
PULLMAN        CLOUDY    43  33  68 E9        29.90F                  
LEWISTON, ID   CLOUDY    43  33  68 E5        29.92F                  
WALLA WALLA    LGT RAIN  47  43  86 CALM      29.87S                  
PENDLETON, OR  LGT RAIN  45  43  93 CALM      29.87S FOG              
$$
  

Return to Home page


Western Regional Climate Center, wrcc@dri.edu